Regional Weather Roundup
Issued by NWS

Home | Current Version | Previous Version | Graphics & Text | Print | Product List | Glossary On
Versions: 1 2 3 4 5 6 7 8 9 10 11 12 13 14 15 16 17 18 19 20 21 22 23 24 25 26 27 28 29 30 31 32 33 34 35 36 37 38 39 40 41 42 43 44 45 46 47 48 49 50
000
ASUS45 KABQ 110301
RWRNM
NEW MEXICO REGIONAL WEATHER ROUNDUP
NATIONAL WEATHER SERVICE ALBUQUERQUE NM
800 PM MST SAT DEC 10 2016

NOTE: "FAIR" MEANS FEW OR NO CLOUDS BELOW 12,000 FEET AGL WITH NO
       SIGNIFICANT WEATHER OR OBSTRUCTIONS TO VISION.

      THIS PRODUCT IS RELEASED AS TWO VERSIONS.  ONE VERSION NEAR
      THE TOP OF THE HOUR CONTAINING PRELIMINARY DATA FROM ALBUQUERQUE
      AND OTHER STATIONS.  A FINAL VERSION WITH ADDITIONAL DATA IS
      ISSUED ABOUT 10 MINUTES AFTER THE HOUR.

NMZ501-503-504-510>518-110400-
NORTHWEST PLATEAU/NORTHCENTRAL MOUNTAINS

CITY           SKY/WX    TMP DP  RH WIND       PRES   REMARKS
FARMINGTON     FAIR      33  26  75 NE5       30.00F WCI  29
LOS ALAMOS     MOCLDY    45  21  38 CALM      30.05F
SANTA FE       FAIR      38  25  59 CALM      30.03F
TAOS           FAIR      30  19  64 SE5       30.05F WCI  25
ANGEL FIRE     FAIR      40  17  39 W24G33    30.00F WCI  30

$$
NMZ402-403-502-505>509-110400-
WESTCENTRAL MOUNTAINS/SOUTHWEST MOUNTAINS

CITY           SKY/WX    TMP DP  RH WIND       PRES   REMARKS
GALLUP         FAIR      44  24  45 SW10      30.09R
GRANTS         FAIR      45  18  34 W6        30.09F
SILVER CITY    FAIR      45  30  56 NW12      30.12F

$$
NMZ407-409-411-412-110400-
SOUTHERN DESERTS

CITY           SKY/WX    TMP DP  RH WIND       PRES   REMARKS
DEMING         FAIR      46  35  65 W8        30.10F
LAS CRUCES     FAIR      42  31  67 SW3       30.11S
HOLLOMAN AFB   FAIR      46  35  64 SE12      30.11S
T OR C         FAIR      44  31  60 CALM      30.06S

$$
NMZ519>523-110400-
CENTRAL VALLEYS/CENTRAL HIGHLANDS

CITY           SKY/WX    TMP DP  RH WIND       PRES   REMARKS
ALBUQUERQUE    FAIR      42  29  59 E7        30.04F
DOUBLE EAGLE   CLEAR     36  28  75 VRB6      30.06R WCI  31
MORIARTY ARPT  FAIR      37  24  57 SW6       30.05S WCI  33
CLINES CORNERS FAIR      34  25  69 W22       30.01F WCI  22
BELEN          FAIR      44  31  60 S10G16    30.03F
SOCORRO        FAIR      43  32  64 S6        30.05S

$$
NMZ524>526-539-540-110400-
SOUTHCENTRAL MOUNTAINS

CITY           SKY/WX    TMP DP  RH WIND       PRES   REMARKS
RUIDOSO        FAIR      45  23  42 SW3       30.10S

$$
NMZ527>531-110400-
NORTHEAST HIGHLANDS/NORTHEAST PLAINS

CITY           SKY/WX    TMP DP  RH WIND       PRES   REMARKS
LAS VEGAS      FAIR      53  13  20 VRB7G22   29.91F
RATON          FAIR      50  16  25 S16       29.83F
CLAYTON        FAIR      49  26  41 SW13      29.79F

$$
NMZ532>537-110400-
EASTCENTRAL PLAINS

CITY           SKY/WX    TMP DP  RH WIND       PRES   REMARKS
TUCUMCARI      FAIR      52  29  41 SW20G28   29.83S
CANNON AFB     FAIR      40  36  85 W9        29.93F WCI  34
CLOVIS AIRPORT FAIR      45  34  65 SW14      29.92F

$$
NMZ028-029-538-110400-
SOUTHEAST PLAINS

CITY           SKY/WX    TMP DP  RH WIND       PRES   REMARKS
ROSWELL        FAIR      33  28  81 W6        29.96F WCI  28
ARTESIA        FAIR      54  36  50 SW20      29.96F
CARLSBAD       NOT AVBL


$$



USA.gov is the U.S. government's official web portal to all federal, state and local government web resources and services.